Location: *
(43.9905°S, 176.4941°W)
Time: 13:57:23
(UTC+00:00)

Meteor 1-29 - Pass Details

Date: 08 December 2019
Orbit: 441 x 460 km, 97.7° (Epoch: 28 January)

Event Time Altitude Azimuth Distance (km) Brightness Sun altitude
Exits shadow 11:16:21 42° 247° (WSW) 681 3.9 -23.1°
Drops below altitude 10° 11:19:11 10° 204° (SSW) 1,644 6.7 -23.2°
Sets 11:21:19 0° 198° (SSW) 2,532 8.0 -23.2°
